This is the latest recevied weather packets stored in our database for station/object HP3ICC-14. If no packets are shown the sender has not sent any weather packets the latest 10 day(s).
| Time | Temp. | Humidity | Pressure | Rain* | Wind** | Luminosity | Snow |
|---|---|---|---|---|---|---|---|
| 1788560549 | 30.56° C | 63% | 1007 hPa | 1.02 mm | - | - | - |
| 1788559409 | 31.11° C | 63% | 1007 hPa | 0 mm | - | - | - |
| 1788559349 | 31.11° C | 63% | 1007 hPa | 0 mm | - | - | - |
| 1788558209 | 31.67° C | 63% | 1007 hPa | 0 mm | - | - | - |
| 1788558148 | 31.67° C | 63% | 1007 hPa | 0 mm | - | - | - |
| 1788557008 | 32.22° C | 63% | 1007 hPa | 0.76 mm | - | - | - |
| 1788556948 | 32.22° C | 63% | 1007 hPa | 0.76 mm | - | - | - |
| 1788555808 | 26.67° C | 79% | 1007 hPa | 0 mm | - | - | - |
| 1788555748 | 26.67° C | 79% | 1007 hPa | 0 mm | - | - | - |
| 1788554607 | 27.22° C | 79% | 1007 hPa | 0 mm | - | - | - |
| 1788554547 | 27.22° C | 79% | 1007 hPa | 0 mm | - | - | - |
| 1788553407 | 27.78° C | 79% | 1007 hPa | 0 mm | - | - | - |
| 1788553347 | 27.78° C | 79% | 1007 hPa | 0 mm | - | - | - |
| 1788552207 | 28.33° C | 79% | 1007 hPa | 0.51 mm | - | - | - |
| 1788551007 | 28.89° C | 79% | 1007 hPa | 0 mm | - | - | - |
| 1788550946 | 28.89° C | 79% | 1007 hPa | 0 mm | - | - | - |
| 1788549806 | 29.44° C | 79% | 1008 hPa | 0.25 mm | - | - | - |
| 1788548606 | 27.22° C | 79% | 1008 hPa | 0 mm | - | - | - |
| 1788548545 | 27.22° C | 79% | 1008 hPa | 0 mm | - | - | - |
| 1788547405 | 27.78° C | 79% | 1008 hPa | 0.25 mm | - | - | - |
| 1788546205 | 28.33° C | 79% | 1009 hPa | 0 mm | - | - | - |
| 1788546163 | 28.33° C | 79% | 1009 hPa | 0 mm | - | - | - |
| 1788545005 | 28.89° C | 79% | 1009 hPa | 0 mm | - | - | - |
| 1788544945 | 28.89° C | 79% | 1009 hPa | 0 mm | - | - | - |
| 1788543804 | 29.44° C | 79% | 1009 hPa | 0 mm | - | - | - |
* Rain latest hour (hover to see other rain measurements)
** Current wind speed in m/s (hover to see current wind gust speed)